Flag for Iran Weather past 2 weeks in Esfahãn, Iran

Now
30 °F

Clear.


Feels Like: 23 °F
Forecast: 29 / 57 °F
Wind: 7 mph from West

Location: Esfahan

Current Time: Mar 5, 2015 at 12:50:32 AM

Latest Report: Mar 5, 2015 at 12:30 AM


Visibility: 4 mi

Pressure: 29.98 "Hg

Humidity: 64%

Dew point: 19 °F

Location of EsfahãnLocation

Historic Weather in Esfahãn — Graph

°F

Esfahãn temperature yesterday

Maximum temperature yesterday: 55 °F (at 12:00 PM)
Minimum temperature yesterday: 30 °F (at 4:00 AM)
Average temperature yesterday: 43 °F

Past Weeks' High & Low Weather Summary

 TemperatureHumidityPressure
High64 °F (Mar 1, 3:00 PM)100% (Feb 21, 5:00 AM)30.30 "Hg (Feb 21, 5:00 AM)
Low12 °F (Feb 28, 6:30 AM)10% (Mar 2, 5:00 PM)29.53 "Hg (Feb 20, 4:00 PM)
Average41 °F47%29.96 "Hg
* Reported Feb 17 11:30 PM — Mar 4 11:30 PM, Esfahãn, Weather by CustomWeather, © 2015

Note: Actual official high and low records may vary slightly from our data, if they occured in-between our weather recording intervals... More about our weather records

Advertising

Esfahãn weather history for previous 24 hours

 ConditionsComfort  
Time TempWeatherWind HumidityBarometerVisibility
11:30 PM
Wed, Mar 4
36 °FClear.7 mph60%29.95 "Hg10 mi
11:00 PM37 °FClear.9 mph56%29.95 "Hg10 mi
10:30 PM34 °FClear.5 mph56%29.95 "Hg10 mi
10:00 PM36 °FClear.5 mph60%29.98 "Hg10 mi
9:30 PM39 °FClear.7 mph56%29.95 "Hg10 mi
9:00 PM37 °FClear.5 mph56%29.95 "Hg10 mi
8:30 PM37 °FPassing clouds.5 mph60%29.95 "HgN/A
8:00 PM41 °FPassing clouds.7 mph53%29.95 "HgN/A
7:30 PM43 °FPassing clouds.9 mph53%29.95 "HgN/A
7:00 PM45 °FPassing clouds.5 mph46%29.95 "HgN/A
6:30 PM46 °FPassing clouds.14 mph46%29.92 "HgN/A
6:00 PM46 °FPassing clouds.16 mph46%29.92 "HgN/A
5:30 PM48 °FPassing clouds.18 mph43%29.92 "HgN/A
5:00 PM50 °FPassing clouds.9 mph32%29.89 "HgN/A
4:30 PM52 °FPassing clouds.12 mph32%29.89 "HgN/A
4:00 PM52 °FScattered clouds.9 mph32%29.89 "HgN/A
3:30 PM50 °FBroken clouds.14 mph35%29.92 "HgN/A
3:00 PM54 °FMore clouds than sun.12 mph22%29.89 "HgN/A
2:30 PM55 °FBroken clouds.14 mph21%29.86 "HgN/A
2:00 PM55 °FScattered clouds.No wind23%29.89 "HgN/A
1:30 PM55 °FScattered clouds.12 mph21%29.89 "HgN/A
1:00 PM54 °FScattered clouds.12 mph24%29.89 "HgN/A
12:30 PM54 °FScattered clouds.7 mph24%29.92 "HgN/A
12:00 PM55 °FScattered clouds.7 mph24%29.92 "HgN/A
11:30 AM52 °FScattered clouds.5 mph30%29.95 "HgN/A
11:00 AM52 °FScattered clouds.5 mph32%29.95 "HgN/A
10:30 AM50 °FScattered clouds.7 mph35%29.98 "HgN/A
10:00 AM50 °FPassing clouds.9 mph35%29.98 "HgN/A
9:30 AM48 °FSunny.9 mph40%29.98 "Hg10 mi
9:00 AM46 °FClear.9 mph43%29.98 "Hg4 mi
8:30 AM45 °FHaze.9 mph42%29.98 "Hg2 mi
8:00 AM36 °FHaze.5 mph52%29.98 "Hg2 mi
7:30 AM30 °FClear.5 mph51%29.98 "Hg5 mi
6:30 AM30 °FClear.5 mph55%29.95 "Hg5 mi
6:00 AM30 °FClear.5 mph55%29.95 "Hg10 mi
5:30 AM30 °FClear.No wind59%29.95 "Hg10 mi
5:00 AM30 °FClear.5 mph55%29.95 "Hg10 mi
4:30 AM32 °FClear.5 mph55%29.95 "Hg10 mi
4:00 AM30 °FClear.7 mph51%29.95 "Hg10 mi
3:30 AM34 °FClear.No wind56%29.95 "Hg10 mi
3:00 AM34 °FClear.5 mph51%29.95 "Hg10 mi
1:30 AM36 °FClear.9 mph44%29.95 "Hg10 mi
1:00 AM39 °FClear.7 mph39%29.95 "Hg10 mi
12:30 AM41 °FClear.7 mph39%29.98 "Hg10 mi
12:00 AM43 °FClear.7 mph36%29.98 "Hg10 mi
Weather by CustomWeather, © 2015

See weather overviewHow to use our weather pages